Location: ??????
(38.3184°N, 23.6932°E)
Time: 01:34:37
(UTC+00:00)

CZ-4 R/B - Pass Details

Date: 16 October 2021
Orbit: 531 x 595 km, 97.8° (Epoch: 04 December)

Event Time Altitude Azimuth Distance (km) Brightness Sun altitude
Exits shadow 18:00:35 - 197° (SSW) 2,522 4.8 -27.1°
Reaches altitude 10° 18:02:33 10° 209° (SSW) 1,811 4.1 -27.5°
Maximum altitude 18:05:46 24° 265° (W) 1,161 3.6 -28.1°
Drops below altitude 10° 18:09:04 10° 320° (NW) 1,854 4.6 -28.8°
Sets 18:11:33 0° 334° (NNW) 2,768 5.4 -29.2°
